Regional Weather Roundup
Issued by NWS Charleston, SC

Current Version | Previous Version | Graphics & Text | Print | Product List | Glossary On
Versions: 1 2 3 4 5 6 7 8 9 10 11 12 13 14 15 16 17 18 19 20 21 22 23 24 25 26 27 28 29 30 31 32 33 34 35 36 37 38 39 40 41 42 43 44 45 46 47 48 49 50
000
ASUS42 KCHS 250513
RWRCHS

REGIONAL WEATHER ROUNDUP
NATIONAL WEATHER SERVICE CHARLESTON SC
100 AM EDT MON JUL 25 2016

NOTE: "FAIR" INDICATES FEW OR NO CLOUDS BELOW 12,000 FEET WITH NO
SIGNIFICANT WEATHER AND/OR OBSTRUCTIONS TO VISIBILITY.

NOT ALL STATIONS ARE QUALITY CONTROLLED. USE DATA WITH CAUTION...
ESPECIALLY DEWPOINT OBSERVATIONS.

SCZ027-030-031-034>040-042>050-250600-
...SOUTHEAST SOUTH CAROLINA...

CITY           SKY/WX    TMP DP  RH WIND       PRES   REMARKS
N CHARLESTON   PTCLDY    79  75  87 SW3       30.06S
WATERFRONT PRK   N/A     84  78  82 SW7       30.04S HX  95
MOUNT PLEASANT FAIR      81  77  89 CALM      30.06S
JOHNS ISLAND   FAIR      82  77  83 SW6       30.06S HX  91
PINOPOLIS        N/A     81  75  83 VRB3      29.99S
MONCKS CORNER  FAIR      73  72  94 CALM      30.06S
SUMMERVILLE    NOT AVBL
BEAUFORT MCAS  CLEAR     82  75  79 S3        30.06S
BEAUFORT ARPT  NOT AVBL
HILTON HEAD IS CLEAR     84  75  74 S7        30.07S HX  92
WALTERBORO     CLEAR     81  79  94 CALM      30.07S
ALLENDALE      FAIR      81  75  83 CALM      30.05S

...SOUTHERN MIDLANDS AND PEE DEE...

CITY           SKY/WX    TMP DP  RH WIND       PRES   REMARKS
GEORGETOWN     FAIR      77  73  88 CALM      30.07S
KINGSTREE      FAIR      77  73  88 CALM      30.05S
ORANGEBURG     CLEAR     79  75  87 S3        30.06S
BARNWELL       NOT AVBL
AIKEN          FAIR      77  72  83 S7        30.09S
MANNING        FAIR      81  73  78 SW6       30.05S
COLUMBIA       PTCLDY    84  73  69 S6        30.04S HX  90
SUMTER         PTCLDY    80  75  84 S5        30.03S
FLORENCE       PTCLDY    80  76  87 SW7       30.05F
MYRTLE BEACH   CLEAR     82  72  69 SW5       30.07S
N MYRTLE BEACH PTCLDY    83  76  79 SW12      30.05F HX  91

$$

GAZ063-065-086>088-099>101-113>116-118-119-134>141-150-250600-
...SOUTHEAST GEORGIA...

CITY           SKY/WX    TMP DP  RH WIND       PRES   REMARKS
SAVANNAH ARPT  MOCLDY    79  74  84 S3        30.07S
HUNTER AAF     MOCLDY    81  77  88 S3        30.04S
FORT STEWART   PTCLDY    75  73  93 CALM      30.04S
STATESBORO     CLEAR     78  75  90 CALM      30.06F
SYLVANIA       NOT AVBL
CLAXTON        FAIR      75  74  99 CALM      30.07S

...CSRA...CENTRAL AND FAR SOUTHEAST GEORGIA...

CITY           SKY/WX    TMP DP  RH WIND       PRES   REMARKS
THOMSON        NOT AVBL
AUGUSTA-BUSH   PTCLDY    76  73  91 S5        30.04S
AUGUSTA-DANIEL CLEAR     83  71  67 S3        30.06S
SWAINSBORO     FAIR      77  72  83 S3        30.06S
VIDALIA        CLEAR     79  70  73 CALM      30.07S
EASTMAN        FAIR      79  66  63 CALM      30.08S
HAZLEHURST     FAIR      80  73  80 CALM      30.06R
ALMA           CLEAR     74  72  93 CALM      30.06S
WAYCROSS       CLEAR     80  75  85 S3        30.07S
JESUP          FAIR      77  77 100 CALM      30.07S
BAXLEY         FAIR      77  77 100 CALM      30.06S
BRUNSWICK      CLEAR     82  73  74 S7        30.07S
SAINT SIMONS   CLEAR     84  72  67 S8        30.06S

$$

SCZ027-028-034-036>038-045-046-048>050-GAZ119-141-250600-
...LAKE AND SUPPLEMENTAL COASTAL OBSERVATIONS...

STATION/POSITION TIME  TEMP    WIND        PRES    WAVE   SWELL
                       AIR SEA DIR/SP/G            HT/PER HT/PER/DIR
                 (UTC) (F)     (DEG/KT/KT) (MB)    (FT/S) (FT/S/D)
WINYAH BAY       0345   82     250/  3     1017.0
LAKE MURRAY      0400   86     190/  9/ 11 1016.6S
ACE BASIN NERRS  NOT AVBL
FORT PULASKI     0400   85 88  180/  5/ 11 1018.4R
SAPELO ISLAND    0400   84     180/ 10     1018.0S

$$

ANZ835-935-AMZ111-154-330-350-352-354-370-450-454-472-250600-
...C-MAN AND BUOY OBSERVATIONS...

STATION/POSITION TIME  TEMP    WIND        PRES    WAVE   SWELL
                       AIR SEA DIR/SP/G            HT/PER HT/PER/DIR
                 (UTC) (F)     (DEG/KT/KT) (MB)    (FT/S) (FT/S/D)
BUOY 41004       0450   85 86  210/ 12/ 14 1017.4S   2/ 8   2/140/ 8
BUOY 41008       0450   85 86  170/ 16/ 17 1017.7R   3/ 9   2/100/ 9
FOLLY BEACH CMAN 0400   84     200/ 13/ 15 1018.1R
CAPERS NEARSHORE 0408   84 84  220/ 12/ 16 1017.7R
FRIPP NEARSHORE  0408   85 86  200/ 16/ 17 1017.3R


STATION/POSITION TIME  TEMP    WIND        PRES    WAVE   SWELL
                       AIR SEA DIR/SP/G            HT/PER HT/PER/DIR
                 (UTC) (F)     (DEG/KT/KT) (MB)    (FT/S) (FT/S/D)
5E ST. MARYS GA  0501      86                N/A     3/ 4
FRYING PAN BUOY  0400   85 86  190/ 10/ 14 1017.5F
BUOY 41025       0450   85 85  220/ 14/ 17 1017.5    2/ 4   2/120/ 8
CAPE LOOKOUT NC  0400   83     220/  7/ 10 1017.8R
BUOY 41002       0450   84 84  180/  4/  6 1019.2S   2/ 9   2/100/ 9
BUOY 41010       0420   84 86  140/  4/  6 1018.6F
ST AUGUSTINE FL  0500   79 86  240/  4/  5 1019.1F


$$




USA.gov is the U.S. government's official web portal to all federal, state and local government web resources and services.